Погода в Никольском

Россия / Тамбовская область     53°18′12″N   40°22′47″E
темп.,
°C
ветер,
м/с
пор.,
м/с
влажн.,
%
обл.,
%
осадки,
мм/ч
давл.,
гПа
погр.,
м
21 апреля, ср
ср2100:00+5в71495100 4.8 1004796
03:00+5ююз61397100 10.1 1002673
06:00+5зюз2499100 4.8 1002212
09:00+5зюз3795100 10.4 1006378
12:00+4з3696100 0.4 1008367
15:00+7зюз5781100 0.4 1010783
18:00+6юз3785100 0.1 1013491
21:00+6ю3891100 0.1 1014265
22 апреля, чт
чт2200:00+6ю369398 0.1 1015144
03:00+5ююз5129262 0.2 1016352
06:00+5юз4991100 0.1 1017463
09:00+6зюз3685100 0.3 1019602
12:00+10юз4666100 0.2 10201352
15:00+11зюз36609 0.2 10201176
18:00+10ююв3569100 0.0 1020120
21:00+9ююв49775 0.0 1021182
23 апреля, пт
пт2300:00+7ю4108447 0.0 1020191
03:00+7ю489098 0.0 1020139
06:00+7ю378861 0.0 1021138
09:00+12ю586889 0.0 1021389
12:00+16ю6746100 0.0 10202443
15:00+16ю4643100 0.0 10191890
18:00+14ююв585980 0.1 1018471
21:00+11ююв41080100 1.5 1017246
24 апреля, сб
сб2400:00+10ююв5128061 0.0 1016391
03:00+8ююв5119230 0.0 1014245
06:00+8ююв5119244 0.2 1013356
09:00+11ююв698092 0.5 1011545
12:00+7з91087100 2.4 1011634
15:00+6зсз5781100 5.3 1012840
18:00+8зюз36716 0.3 1012974
21:00+5юз498234 0.3 1012248
25 апреля, вс
вс2500:00+4зюз410863 0.0 1013244
03:00+2зюз489114 0.0 1014192
06:00+2зюз37915 0.0 1014201
09:00+6зюз566897 0.1 1015949
12:00+8зюз675195 0.6 10151880
15:00+9зюз6847100 0.7 10162087
18:00+8зюз685424 0.2 10161096
21:00+5юз33675 0.3 101838